Regional Weather Roundup
Issued by NWS Huntsville, AL

Home | Current Version | Previous Version | Text Only | Print | Product List | Glossary On
Versions: 1 2 3 4 5 6 7 8 9 10 11 12 13 14 15 16 17 18 19 20 21 22 23 24 25 26 27 28 29 30 31 32 33 34 35 36 37 38 39 40 41 42 43 44 45 46 47 48 49 50
000
ASUS44 KHUN 070210
RWRHUN

WEATHER ROUNDUP FOR THE TENNESSEE VALLEY
NATIONAL WEATHER SERVICE HUNTSVILLE AL
800 PM CST FRI MAR 06 2015

ALZ001>004-070300-
NORTHWEST ALABAMA

CITY           SKY/WX    TMP DP  RH WIND       PRES   REMARKS
COURTLAND HCN    N/A     30 N/A N/A CALM        N/A
RUSSELLVILLE     N/A     30 N/A N/A MISG        N/A
SHOALS AIRPORT CLEAR     34  23  64 CALM      30.49R
$$

ALZ005>007-016-070300-
NORTH CENTRAL ALABAMA

CITY           SKY/WX    TMP DP  RH WIND       PRES   REMARKS
DECATUR AP     CLEAR     30  22  72 CALM      30.49S
HUNTSVILLE AP  CLEAR     34  22  61 CALM      30.48S
HUN NWS/UAH      N/A     32  20  63 CALM        N/A
MERIDIANVILLE  CLEAR     30  21  69 CALM      30.48R
REDSTONE ARSN  CLEAR     29  23  76 NE2       30.48R
VINEMONT AP    FAIR      28  22  79 CALM      30.49R
$$

ALZ008>010-070300-
NORTHEAST ALABAMA

CITY           SKY/WX    TMP DP  RH WIND       PRES   REMARKS
ALBERTVILLE    CLEAR     32  23  69 NW3       30.45S
FORT PAYNE     CLEAR     30  21  69 CALM      30.46R
SCOTTSBORO AP  CLEAR     30  23  74 CALM      30.48R
SCOTTSBORO HCN   N/A     28 N/A N/A MISG        N/A
VALLEY HEAD      N/A     28 N/A N/A MISG        N/A
$$

TNZ076-096-097-070300-
SOUTHEASTERN MIDDLE TENNESSEE

CITY           SKY/WX    TMP DP  RH WIND       PRES   REMARKS
TULLAHOMA      CLEAR     27  19  74 CALM        N/A
WINCHESTER     CLEAR     28  21  74 CALM      30.47R
$$

...SURROUNDING SITES...

CITY           SKY/WX    TMP DP  RH WIND       PRES   REMARKS
ATLANTA        PTCLDY    41  28  60 NW8       30.42R
ANNISTON       CLEAR     36  27  69 CALM      30.46R
BIRMINGHAM     PTCLDY    31  20  63 N8        30.49R WCI  23
CHATTANOOGA    CLEAR     35  26  69 N3        30.46R
CORINTH        FAIR      32  16  51 CALM      30.48S
DALTON         CLEAR     32  25  74 CALM      30.45S
GADSDEN        CLEAR     36  18  48 N3        30.46R
GOLDEN TRNGL   CLEAR     36  18  48 N5        30.49R WCI  32
HALEYVILLE       N/A     27  22  81 CALM      30.50R
JACKSON TN     CLEAR     26  14  60 S5        30.49R WCI  20
LEWISBURG      FAIR      26  22  85 CALM      30.46S
MEMPHIS        CLEAR     31  18  58 CALM      30.50S
MURFREESBORO   FAIR      30  21  69 S3        30.47R
NASHVILLE      CLEAR     29  18  63 S5        30.47S WCI  24
OXFORD MS        N/A     28  23  80 CALM      30.51R
ROME           CLEAR     34  28  79 CALM      30.45R
SAVANNAH       CLEAR     27  21  80 CALM      30.48S
TUPELO         CLEAR     34  21  59 CALM      30.50R
TUSCALOOSA     CLEAR     37  19  48 N6        30.49S WCI  32
$$

...GULF COAST WEATHER...

CITY           SKY/WX    TMP DP  RH WIND       PRES   REMARKS
GULFPORT       MOCLDY    47  19  33 N3        30.45R
PASCAGOULA     MOCLDY    43  23  45 N3        30.45R
MOBILE         MOCLDY    45  18  34 N10       30.44R
GULF SHORES    MOCLDY    46  28  49 N5        30.43R
PENSACOLA      MOCLDY    48  29  47 N13       30.42R
DESTIN         CLOUDY    50  35  56 N12       30.41R
PANAMA CITY    CLOUDY    46  40  81 N7        30.40R
APPALACHICOLA  CLOUDY    49  40  71 NE10      30.38R
$$




USA.gov is the U.S. government's official web portal to all federal, state and local government web resources and services.